This is the latest recevied weather packets stored in our database for station/object NE1CU. If no packets are shown the sender has not sent any weather packets the latest 10 day(s).
| Time | Temp. | Humidity | Pressure | Rain* | Wind** | Luminosity | Snow |
|---|---|---|---|---|---|---|---|
| 1777384770 | 16.11° C | 54% | 1021.9 hPa | 0 mm | - | 680 W/m² | - |
| 1777384466 | 15.56° C | 53% | 1021.8 hPa | 0 mm | - | 662 W/m² | - |
| 1777384161 | 15.56° C | 52% | 1021.9 hPa | 0 mm | - | 645 W/m² | - |
| 1777383858 | 15.56° C | 52% | 1022.1 hPa | 0 mm | - | 634 W/m² | - |
| 1777383554 | 16.11° C | 53% | 1022.1 hPa | 0 mm | - | 617 W/m² | - |
| 1777383251 | 16.11° C | 52% | 1022 hPa | 0 mm | - | 596 W/m² | - |
| 1777382947 | 16.11° C | 53% | 1021.9 hPa | 0 mm | - | 581 W/m² | - |
| 1777382642 | 15.56° C | 51% | 1021.9 hPa | 0 mm | - | 561 W/m² | - |
| 1777382338 | 15.56° C | 52% | 1021.7 hPa | 0 mm | - | 526 W/m² | - |
| 1777382035 | 15° C | 57% | 1021.8 hPa | 0 mm | - | 525 W/m² | - |
| 1777381730 | 14.44° C | 57% | 1022 hPa | 0 mm | - | 508 W/m² | - |
| 1777381425 | 14.44° C | 57% | 1022 hPa | 0 mm | - | 489 W/m² | - |
| 1777381121 | 15° C | 59% | 1021.8 hPa | 0 mm | - | 91 W/m² | - |
| 1777380818 | 14.44° C | 59% | 1021.8 hPa | 0 mm | - | 437 W/m² | - |
| 1777380516 | 13.89° C | 60% | 1022.1 hPa | 0 mm | - | 353 W/m² | - |
| 1777380212 | 13.33° C | 62% | 1021.9 hPa | 0 mm | - | 294 W/m² | - |
| 1777379908 | 12.22° C | 67% | 1021.9 hPa | 0 mm | - | 248 W/m² | - |
| 1777379604 | 11.67° C | 67% | 1022 hPa | 0 mm | - | 216 W/m² | - |
| 1777379300 | 11.67° C | 68% | 1022 hPa | 0 mm | - | 163 W/m² | - |
| 1777378994 | 11.67° C | 71% | 1022.1 hPa | 0 mm | - | 48 W/m² | - |
| 1777378690 | 11.11° C | 71% | 1022.2 hPa | 0 mm | - | 47 W/m² | - |
| 1777378387 | 10.56° C | 71% | 1022.4 hPa | 0 mm | - | 46 W/m² | - |
| 1777378081 | 10.56° C | 73% | 1022.3 hPa | 0 mm | - | 44 W/m² | - |
| 1777377776 | 10.56° C | 74% | 1022.2 hPa | 0 mm | - | 43 W/m² | - |
| 1777377470 | 10° C | 76% | 1022.3 hPa | 0 mm | - | 44 W/m² | - |
* Rain latest hour (hover to see other rain measurements)
** Current wind speed in m/s (hover to see current wind gust speed)